| time (UTC) | temp F | wind direction | speed knots | gust knots | rain 1hr in | rain 24hr in | rain mn in | humidity % | barometer mb |
| 20260903141536 | 64 | 360 | 4.3 | 0.0 | 0.00 | 0.00 | 0.00 | 84 | 1004.4 |
| 20260903141037 | 64 | 360 | 2.6 | 0.0 | 0.00 | 0.00 | 0.00 | 84 | 1004.6 |
| 20260903140539 | 64 | 360 | 1.7 | 0.0 | 0.00 | 0.00 | 0.00 | 84 | 1005.6 |
| 20260903140035 | 64 | 360 | 4.3 | 0.0 | 0.00 | 0.00 | 0.00 | 84 | 1006.1 |
| 20260903135534 | 64 | 360 | 4.3 | 0.0 | 0.00 | 0.00 | 0.00 | 85 | 1006.4 |
| 20260903135036 | 63 | 360 | 1.7 | 0.0 | 0.00 | 0.00 | 0.00 | 85 | 1005.4 |
| 20260903134533 | 63 | 360 | 0.9 | 0.0 | 0.00 | 0.00 | 0.00 | 84 | 1005.7 |
| 20260903133532 | 63 | 360 | 4.3 | 0.0 | 0.00 | 0.00 | 0.00 | 85 | 1005.9 |
| 20260903133032 | 63 | 360 | 5.2 | 0.0 | 0.00 | 0.00 | 0.00 | 86 | 1005.2 |
| 20260903132531 | 63 | 360 | 4.3 | 0.0 | 0.00 | 0.00 | 0.00 | 86 | 1004.8 |
| 20260903132031 | 63 | 360 | 3.5 | 0.0 | 0.00 | 0.00 | 0.00 | 87 | 1005.0 |
| 20260903131531 | 62 | 360 | 2.6 | 0.0 | 0.00 | 0.00 | 0.00 | 88 | 1005.1 |
| 20260903131031 | 61 | 360 | 0.9 | 0.0 | 0.00 | 0.00 | 0.00 | 89 | 1005.2 |
| 20260903130530 | 60 | 360 | 0.0 | 0.0 | 0.00 | 0.00 | 0.00 | 90 | 1005.4 |
| 20260903130031 | 59 | 360 | 0.9 | 0.0 | 0.00 | 0.00 | 0.00 | 89 | 1005.2 |
| 20260903125531 | 59 | 360 | 0.9 | 0.0 | 0.00 | 0.00 | 0.00 | 88 | 1005.0 |
| 20260903125028 | 59 | 360 | 1.7 | 0.0 | 0.00 | 0.00 | 0.00 | 87 | 1004.4 |
| 20260903124527 | 59 | 360 | 2.6 | 0.0 | 0.00 | 0.00 | 0.00 | 87 | 1004.2 |
| 20260903123527 | 59 | 360 | 0.9 | 0.0 | 0.00 | 0.00 | 0.00 | 86 | 1004.1 |
| 20260903123027 | 60 | 360 | 0.0 | 0.0 | 0.00 | 0.00 | 0.00 | 85 | 1004.1 |
| 20260903122526 | 60 | 360 | 0.0 | 0.0 | 0.00 | 0.00 | 0.00 | 84 | 1004.1 |
| 20260903122024 | 61 | 360 | 0.0 | 0.0 | 0.00 | 0.00 | 0.00 | 85 | 1004.0 |
| 20260903121524 | 61 | 360 | 0.9 | 0.0 | 0.00 | 0.00 | 0.00 | 85 | 1004.0 |
| 20260903121023 | 61 | 360 | 0.9 | 0.0 | 0.00 | 0.00 | 0.00 | 85 | 1004.1 |
| 20260903120523 | 61 | 360 | 0.9 | 0.0 | 0.00 | 0.00 | 0.00 | 85 | 1004.1 |
| 20260903120022 | 61 | 360 | 1.7 | 0.0 | 0.00 | 0.00 | 0.00 | 86 | 1004.0 |
| 20260903115522 | 61 | 360 | 3.5 | 0.0 | 0.00 | 0.00 | 0.00 | 86 | 1004.0 |
| 20260903115021 | 61 | 360 | 3.5 | 0.0 | 0.00 | 0.00 | 0.00 | 85 | 1004.0 |
| 20260903114521 | 61 | 360 | 2.6 | 0.0 | 0.00 | 0.00 | 0.00 | 85 | 1003.4 |
| 20260903113521 | 62 | 360 | 1.7 | 0.0 | 0.00 | 0.00 | 0.00 | 84 | 1003.9 |
| 20260903113032 | 62 | 360 | 1.7 | 0.0 | 0.00 | 0.00 | 0.00 | 84 | 1004.5 |
| 20260903112522 | 62 | 360 | 0.9 | 0.0 | 0.00 | 0.00 | 0.00 | 83 | 1004.5 |
| 20260903112023 | 62 | 360 | 1.7 | 0.0 | 0.00 | 0.00 | 0.00 | 83 | 1004.0 |
| 20260903111519 | 62 | 360 | 2.6 | 0.0 | 0.00 | 0.00 | 0.00 | 83 | 1003.5 |
| 20260903111019 | 62 | 360 | 3.5 | 0.0 | 0.00 | 0.00 | 0.00 | 83 | 1003.6 |
| 20260903110521 | 62 | 360 | 4.3 | 0.0 | 0.00 | 0.00 | 0.00 | 83 | 1003.6 |
| 20260903110039 | 62 | 360 | 4.3 | 0.0 | 0.00 | 0.00 | 0.00 | 83 | 1003.4 |
| 20260903105517 | 63 | 360 | 5.2 | 0.0 | 0.00 | 0.00 | 0.00 | 83 | 1003.5 |
| 20260903105018 | 63 | 360 | 7.8 | 0.0 | 0.00 | 0.00 | 0.00 | 83 | 1003.7 |
| 20260903104517 | 63 | 360 | 9.6 | 0.0 | 0.00 | 0.00 | 0.00 | 84 | 1003.5 |
| 20260903103520 | 63 | 360 | 11.3 | 0.0 | 0.00 | 0.00 | 0.00 | 84 | 1003.6 |
| 20260903103015 | 63 | 360 | 12.2 | 0.0 | 0.00 | 0.00 | 0.00 | 84 | 1003.6 |
| 20260903102514 | 63 | 360 | 12.2 | 0.0 | 0.00 | 0.00 | 0.00 | 83 | 1003.6 |
| 20260903102013 | 63 | 360 | 11.3 | 0.0 | 0.00 | 0.00 | 0.00 | 84 | 1003.6 |
| 20260903101513 | 63 | 360 | 9.6 | 0.0 | 0.00 | 0.00 | 0.00 | 84 | 1003.8 |
| 20260903101012 | 63 | 360 | 9.6 | 0.0 | 0.00 | 0.00 | 0.00 | 83 | 1003.4 |
| 20260903100511 | 63 | 360 | 9.6 | 0.0 | 0.00 | 0.00 | 0.00 | 83 | 1003.4 |
| 20260903100009 | 63 | 360 | 9.6 | 0.0 | 0.00 | 0.00 | 0.00 | 82 | 1003.5 |
| 20260903095508 | 63 | 360 | 9.6 | 0.0 | 0.00 | 0.00 | 0.00 | 81 | 1003.7 |
| 20260903095007 | 64 | 360 | 9.6 | 0.0 | 0.00 | 0.00 | 0.00 | 79 | 1003.7 |
| 20260903094520 | 65 | 360 | 8.7 | 0.0 | 0.00 | 0.00 | 0.00 | 75 | 1003.7 |
| 20260903093508 | 67 | 360 | 7.8 | 0.0 | 0.00 | 0.00 | 0.00 | 70 | 1003.5 |
| 20260903093006 | 67 | 360 | 7.8 | 0.0 | 0.00 | 0.00 | 0.00 | 69 | 1003.4 |
| 20260903092505 | 67 | 360 | 7.8 | 0.0 | 0.00 | 0.00 | 0.00 | 70 | 1003.5 |
| 20260903092005 | 67 | 360 | 6.1 | 0.0 | 0.00 | 0.00 | 0.00 | 71 | 1003.6 |
| 20260903091504 | 66 | 360 | 5.2 | 0.0 | 0.00 | 0.00 | 0.00 | 73 | 1003.8 |
| 20260903091004 | 66 | 360 | 5.2 | 0.0 | 0.00 | 0.00 | 0.00 | 74 | 1003.7 |
| 20260903090504 | 65 | 360 | 5.2 | 0.0 | 0.00 | 0.00 | 0.00 | 75 | 1003.6 |
| 20260903090004 | 65 | 360 | 6.1 | 0.0 | 0.00 | 0.00 | 0.00 | 76 | 1003.9 |
| 20260903085503 | 65 | 360 | 6.1 | 0.0 | 0.00 | 0.00 | 0.00 | 76 | 1004.0 |
| 20260903085003 | 65 | 360 | 6.1 | 0.0 | 0.00 | 0.00 | 0.00 | 76 | 1004.0 |
| 20260903084502 | 65 | 360 | 5.2 | 0.0 | 0.00 | 0.00 | 0.00 | 76 | 1004.2 |
| 20260903083501 | 65 | 360 | 5.2 | 0.0 | 0.00 | 0.00 | 0.00 | 75 | 1004.5 |
| 20260903083002 | 65 | 360 | 5.2 | 0.0 | 0.00 | 0.00 | 0.00 | 75 | 1004.6 |
| 20260903082600 | 65 | 360 | 5.2 | 0.0 | 0.00 | 0.00 | 0.00 | 75 | 1004.5 |
| 20260903082101 | 65 | 360 | 5.2 | 0.0 | 0.00 | 0.00 | 0.00 | 75 | 1004.5 |
| 20260903081612 | 65 | 360 | 5.2 | 0.0 | 0.00 | 0.00 | 0.00 | 75 | 1004.6 |
| 20260903081059 | 65 | 360 | 5.2 | 0.0 | 0.00 | 0.00 | 0.00 | 74 | 1004.5 |
| 20260903080600 | 66 | 360 | 7.8 | 0.0 | 0.00 | 0.00 | 0.00 | 74 | 1004.4 |
| 20260903080058 | 66 | 360 | 9.6 | 0.0 | 0.00 | 0.00 | 0.00 | 72 | 1004.6 |
| 20260903075557 | 67 | 360 | 8.7 | 0.0 | 0.00 | 0.00 | 0.00 | 71 | 1004.5 |
| 20260903075055 | 67 | 360 | 9.6 | 0.0 | 0.00 | 0.00 | 0.00 | 69 | 1004.5 |
| 20260903074605 | 68 | 360 | 9.6 | 0.0 | 0.00 | 0.00 | 0.00 | 67 | 1004.6 |
| 20260903073552 | 71 | 360 | 9.6 | 0.0 | 0.00 | 0.00 | 0.00 | 61 | 1004.8 |
| 20260903073050 | 72 | 360 | 7.0 | 0.0 | 0.00 | 0.00 | 0.00 | 60 | 1004.8 |
| 20260903072550 | 74 | 360 | 3.5 | 0.0 | 0.00 | 0.00 | 0.00 | 65 | 1004.8 |
| 20260903072050 | 74 | 360 | 2.6 | 0.0 | 0.00 | 0.00 | 0.00 | 65 | 1004.7 |
| 20260903071553 | 74 | 360 | 4.3 | 0.0 | 0.00 | 0.00 | 0.00 | 66 | 1004.8 |
| 20260903071049 | 74 | 360 | 7.8 | 0.0 | 0.00 | 0.00 | 0.00 | 66 | 1004.9 |
| 20260903070553 | 73 | 360 | 11.3 | 0.0 | 0.00 | 0.00 | 0.00 | 66 | 1004.9 |
| 20260903070050 | 72 | 360 | 8.7 | 0.0 | 0.00 | 0.00 | 0.00 | 68 | 1004.8 |
| 20260903065551 | 72 | 360 | 7.0 | 0.0 | 0.00 | 0.00 | 0.00 | 67 | 1004.5 |
| 20260903065049 | 72 | 360 | 7.8 | 0.0 | 0.00 | 0.00 | 0.00 | 67 | 1002.8 |
| 20260903064551 | 72 | 360 | 8.7 | 0.0 | 0.00 | 0.00 | 0.00 | 67 | 1002.9 |
| 20260903063550 | 72 | 360 | 9.6 | 0.0 | 0.00 | 0.00 | 0.00 | 68 | 1002.5 |
| 20260903063049 | 72 | 360 | 8.7 | 0.0 | 0.00 | 0.00 | 0.00 | 68 | 1002.3 |
| 20260903062553 | 72 | 360 | 8.7 | 0.0 | 0.00 | 0.00 | 0.00 | 68 | 1002.2 |
| 20260903062047 | 72 | 360 | 7.8 | 0.0 | 0.00 | 0.00 | 0.00 | 68 | 1002.1 |
| 20260903061553 | 72 | 360 | 8.7 | 0.0 | 0.00 | 0.00 | 0.00 | 67 | 1002.2 |
| 20260903061048 | 72 | 360 | 7.8 | 0.0 | 0.00 | 0.00 | 0.00 | 66 | 1002.3 |
| 20260903060548 | 73 | 360 | 7.8 | 0.0 | 0.00 | 0.00 | 0.00 | 66 | 1002.4 |
| 20260903060051 | 73 | 360 | 8.7 | 0.0 | 0.00 | 0.00 | 0.00 | 65 | 1002.7 |
| 20260903055547 | 73 | 360 | 8.7 | 0.0 | 0.00 | 0.00 | 0.00 | 65 | 1002.7 |
| 20260903055047 | 73 | 360 | 9.6 | 0.0 | 0.00 | 0.00 | 0.00 | 65 | 1002.8 |
| 20260903054550 | 73 | 360 | 8.7 | 0.0 | 0.00 | 0.00 | 0.00 | 65 | 1002.8 |
| 20260903053550 | 72 | 360 | 8.7 | 0.0 | 0.00 | 0.00 | 0.00 | 67 | 1002.9 |
| 20260903053104 | 72 | 360 | 9.6 | 0.0 | 0.00 | 0.00 | 0.00 | 67 | 1002.8 |
| 20260903052548 | 72 | 360 | 8.7 | 0.0 | 0.00 | 0.00 | 0.00 | 68 | 1002.6 |
| 20260903052050 | 72 | 360 | 7.8 | 0.0 | 0.00 | 0.00 | 0.00 | 68 | 1002.3 |
| 20260903051552 | 72 | 360 | 8.7 | 0.0 | 0.00 | 0.00 | 0.00 | 68 | 1002.2 |
| 20260903051046 | 72 | 360 | 7.8 | 0.0 | 0.00 | 0.00 | 0.00 | 68 | 1002.1 |
| 20260903050548 | 72 | 360 | 7.8 | 0.0 | 0.00 | 0.00 | 0.00 | 69 | 1002.3 |
| 20260903050045 | 72 | 360 | 7.8 | 0.0 | 0.00 | 0.00 | 0.00 | 69 | 1002.2 |
| 20260903045545 | 72 | 360 | 7.0 | 0.0 | 0.00 | 0.00 | 0.00 | 69 | 1002.4 |
| 20260903045043 | 72 | 360 | 7.0 | 0.0 | 0.00 | 0.00 | 0.00 | 68 | 1002.7 |
| 20260903044552 | 72 | 360 | 7.0 | 0.0 | 0.00 | 0.00 | 0.00 | 68 | 1002.9 |
| 20260903043545 | 73 | 360 | 7.0 | 0.0 | 0.00 | 0.00 | 0.00 | 68 | 1003.2 |
| 20260903043043 | 73 | 360 | 7.0 | 0.0 | 0.00 | 0.00 | 0.00 | 68 | 1003.3 |
| 20260903042544 | 73 | 360 | 7.0 | 0.0 | 0.00 | 0.00 | 0.00 | 68 | 1003.3 |
| 20260903042044 | 73 | 360 | 6.1 | 0.0 | 0.00 | 0.00 | 0.00 | 68 | 1003.5 |
| 20260903041543 | 73 | 360 | 6.1 | 0.0 | 0.00 | 0.00 | 0.00 | 68 | 1003.6 |
| 20260903041042 | 73 | 360 | 6.1 | 0.0 | 0.00 | 0.00 | 0.00 | 68 | 1003.7 |
| 20260903040543 | 73 | 360 | 6.1 | 0.0 | 0.00 | 0.00 | 0.00 | 67 | 1003.7 |
| 20260903040043 | 73 | 360 | 6.1 | 0.0 | 0.00 | 0.00 | 0.00 | 67 | 1003.7 |
| 20260903035542 | 73 | 360 | 5.2 | 0.0 | 0.00 | 0.00 | 0.00 | 67 | 1003.8 |
| 20260903035042 | 74 | 360 | 5.2 | 0.0 | 0.00 | 0.00 | 0.00 | 67 | 1003.9 |
| 20260903034542 | 74 | 360 | 6.1 | 0.0 | 0.00 | 0.00 | 0.00 | 66 | 1003.7 |
| 20260903033543 | 74 | 360 | 7.0 | 0.0 | 0.00 | 0.00 | 0.00 | 66 | 1003.8 |
| 20260903033041 | 74 | 360 | 7.0 | 0.0 | 0.00 | 0.00 | 0.00 | 65 | 1003.7 |
| 20260903032541 | 75 | 360 | 7.8 | 0.0 | 0.00 | 0.00 | 0.00 | 65 | 1003.7 |
| 20260903032040 | 75 | 360 | 7.8 | 0.0 | 0.00 | 0.00 | 0.00 | 65 | 1003.7 |
| 20260903031540 | 75 | 360 | 7.8 | 0.0 | 0.00 | 0.00 | 0.00 | 64 | 1003.7 |
| 20260903031040 | 75 | 360 | 7.8 | 0.0 | 0.00 | 0.00 | 0.00 | 64 | 1003.7 |
| 20260903030540 | 75 | 360 | 7.8 | 0.0 | 0.00 | 0.00 | 0.00 | 64 | 1003.6 |
| 20260903030044 | 75 | 360 | 7.0 | 0.0 | 0.00 | 0.00 | 0.00 | 64 | 1003.7 |
| 20260903025540 | 75 | 360 | 7.0 | 0.0 | 0.00 | 0.00 | 0.00 | 64 | 1003.8 |
| 20260903025040 | 75 | 360 | 7.0 | 0.0 | 0.00 | 0.00 | 0.00 | 64 | 1003.9 |
| 20260903024545 | 75 | 360 | 7.8 | 0.0 | 0.00 | 0.00 | 0.00 | 64 | 1003.7 |
| 20260903023542 | 76 | 120 | 8.7 | 0.0 | 0.00 | 0.00 | 0.00 | 62 | 1003.5 |
| 20260903023041 | 76 | 121 | 8.7 | 0.0 | 0.00 | 0.00 | 0.00 | 62 | 1003.5 |
| 20260903022540 | 77 | 115 | 8.7 | 0.0 | 0.00 | 0.00 | 0.00 | 62 | 1003.6 |
| 20260903022040 | 77 | 123 | 9.6 | 0.0 | 0.00 | 0.00 | 0.00 | 61 | 1003.8 |
| 20260903021546 | 77 | 114 | 9.6 | 0.0 | 0.00 | 0.00 | 0.00 | 61 | 1003.9 |
| 20260903021039 | 77 | 126 | 10.4 | 0.0 | 0.00 | 0.00 | 0.00 | 60 | 1003.9 |
| 20260903020540 | 78 | 116 | 10.4 | 0.0 | 0.00 | 0.00 | 0.00 | 60 | 1003.8 |
| 20260903020039 | 78 | 126 | 10.4 | 0.0 | 0.00 | 0.00 | 0.00 | 60 | 1003.6 |
| 20260903015540 | 78 | 121 | 11.3 | 0.0 | 0.00 | 0.00 | 0.00 | 60 | 1003.5 |
| 20260903015038 | 78 | 123 | 10.4 | 0.0 | 0.00 | 0.00 | 0.00 | 59 | 1003.5 |
| 20260903014543 | 78 | 128 | 10.4 | 0.0 | 0.00 | 0.00 | 0.00 | 59 | 1003.5 |
| 20260903013540 | 79 | 360 | 9.6 | 0.0 | 0.00 | 0.00 | 0.00 | 58 | 1003.6 |
| 20260903013040 | 79 | 360 | 9.6 | 0.0 | 0.00 | 0.00 | 0.00 | 58 | 1003.6 |
| 20260903012539 | 79 | 360 | 9.6 | 0.0 | 0.00 | 0.00 | 0.00 | 57 | 1003.6 |
| 20260903012039 | 80 | 360 | 10.4 | 0.0 | 0.00 | 0.00 | 0.00 | 57 | 1003.4 |
| 20260903011542 | 80 | 360 | 10.4 | 0.0 | 0.00 | 0.00 | 0.00 | 56 | 1003.4 |
| 20260903011039 | 81 | 360 | 10.4 | 0.0 | 0.00 | 0.00 | 0.00 | 55 | 1003.4 |
| 20260903010539 | 81 | 360 | 10.4 | 0.0 | 0.00 | 0.00 | 0.00 | 54 | 1003.3 |
| 20260903010039 | 82 | 360 | 10.4 | 0.0 | 0.00 | 0.00 | 0.00 | 54 | 1003.3 |
| 20260903005541 | 82 | 360 | 10.4 | 0.0 | 0.00 | 0.00 | 0.00 | 53 | 1003.3 |
| 20260903005038 | 82 | 360 | 10.4 | 0.0 | 0.00 | 0.00 | 0.00 | 52 | 1003.3 |
| 20260903004542 | 83 | 360 | 10.4 | 0.0 | 0.00 | 0.00 | 0.00 | 52 | 1003.3 |
| 20260903003537 | 83 | 360 | 11.3 | 0.0 | 0.00 | 0.00 | 0.00 | 51 | 1003.3 |
| 20260903003036 | 84 | 360 | 10.4 | 0.0 | 0.00 | 0.00 | 0.00 | 50 | 1003.2 |
| 20260903002537 | 84 | 360 | 9.6 | 0.0 | 0.00 | 0.00 | 0.00 | 50 | 1003.2 |
| 20260903002036 | 84 | 360 | 9.6 | 0.0 | 0.00 | 0.00 | 0.00 | 50 | 1003.3 |
| 20260903001536 | 84 | 360 | 9.6 | 0.0 | 0.00 | 0.00 | 0.00 | 50 | 1003.2 |
| 20260903001035 | 84 | 360 | 10.4 | 0.0 | 0.00 | 0.00 | 0.00 | 48 | 1003.3 |
| 20260903000535 | 85 | 360 | 12.2 | 0.0 | 0.00 | 0.00 | 0.00 | 47 | 1003.3 |
| 20260903000035 | 85 | 360 | 12.2 | 0.0 | 0.00 | 0.00 | 0.00 | 47 | 1003.3 |
| 20260902235535 | 85 | 360 | 11.3 | 0.0 | 0.00 | 0.00 | 0.00 | 47 | 1003.2 |
| 20260902235033 | 86 | 360 | 11.3 | 0.0 | 0.00 | 0.00 | 0.00 | 48 | 1003.4 |
| 20260902234533 | 86 | 360 | 11.3 | 0.0 | 0.00 | 0.00 | 0.00 | 48 | 1003.4 |
| 20260902233533 | 86 | 360 | 11.3 | 0.0 | 0.00 | 0.00 | 0.00 | 46 | 1003.6 |
| 20260902233037 | 87 | 360 | 11.3 | 0.0 | 0.00 | 0.00 | 0.00 | 45 | 1003.6 |
| 20260902232533 | 87 | 360 | 10.4 | 0.0 | 0.00 | 0.00 | 0.00 | 46 | 1003.7 |
| 20260902232032 | 87 | 360 | 10.4 | 0.0 | 0.00 | 0.00 | 0.00 | 46 | 1003.6 |
| 20260902231536 | 87 | 360 | 10.4 | 0.0 | 0.00 | 0.00 | 0.00 | 46 | 1003.7 |
| 20260902231034 | 87 | 360 | 10.4 | 0.0 | 0.00 | 0.00 | 0.00 | 46 | 1003.8 |
| 20260902230531 | 86 | 360 | 10.4 | 0.0 | 0.00 | 0.00 | 0.00 | 47 | 1003.8 |
| 20260902230031 | 85 | 360 | 10.4 | 0.0 | 0.00 | 0.00 | 0.00 | 46 | 1003.8 |
| 20260902225530 | 87 | 360 | 11.3 | 0.0 | 0.00 | 0.00 | 0.00 | 44 | 1003.8 |
| 20260902225031 | 87 | 360 | 12.2 | 0.0 | 0.00 | 0.00 | 0.00 | 44 | 1003.7 |
| 20260902224530 | 86 | 360 | 12.2 | 0.0 | 0.00 | 0.00 | 0.00 | 46 | 1003.7 |
| 20260902223530 | 87 | 360 | 11.3 | 0.0 | 0.00 | 0.00 | 0.00 | 43 | 1003.7 |
| 20260902223030 | 87 | 360 | 11.3 | 0.0 | 0.00 | 0.00 | 0.00 | 45 | 1003.7 |
| 20260902222530 | 86 | 360 | 11.3 | 0.0 | 0.00 | 0.00 | 0.00 | 46 | 1003.8 |
| 20260902222029 | 86 | 360 | 11.3 | 0.0 | 0.00 | 0.00 | 0.00 | 46 | 1003.9 |
| 20260902221528 | 86 | 360 | 11.3 | 0.0 | 0.00 | 0.00 | 0.00 | 46 | 1003.8 |
| 20260902221028 | 86 | 360 | 11.3 | 0.0 | 0.00 | 0.00 | 0.00 | 45 | 1004.0 |
| 20260902220527 | 87 | 360 | 11.3 | 0.0 | 0.00 | 0.00 | 0.00 | 45 | 1003.9 |
| 20260902220030 | 86 | 360 | 10.4 | 0.0 | 0.00 | 0.00 | 0.00 | 46 | 1004.0 |
| 20260902215526 | 86 | 360 | 10.4 | 0.0 | 0.00 | 0.00 | 0.00 | 45 | 1004.0 |
| 20260902215025 | 86 | 360 | 11.3 | 0.0 | 0.00 | 0.00 | 0.00 | 46 | 1004.1 |
| 20260902214524 | 86 | 360 | 10.4 | 0.0 | 0.00 | 0.00 | 0.00 | 46 | 1004.3 |
| 20260902213523 | 85 | 360 | 9.6 | 0.0 | 0.00 | 0.00 | 0.00 | 47 | 1004.3 |
| 20260902213023 | 85 | 360 | 10.4 | 0.0 | 0.00 | 0.00 | 0.00 | 47 | 1004.3 |
| 20260902212524 | 86 | 360 | 12.2 | 0.0 | 0.00 | 0.00 | 0.00 | 45 | 1004.4 |
| 20260902212024 | 87 | 360 | 12.2 | 0.0 | 0.00 | 0.00 | 0.00 | 44 | 1004.5 |
| 20260902211522 | 88 | 360 | 11.3 | 0.0 | 0.00 | 0.00 | 0.00 | 45 | 1004.5 |
| 20260902211022 | 88 | 360 | 12.2 | 0.0 | 0.00 | 0.00 | 0.00 | 45 | 1004.5 |
| 20260902210522 | 87 | 360 | 12.2 | 0.0 | 0.00 | 0.00 | 0.00 | 44 | 1004.6 |
| 20260902210021 | 88 | 360 | 11.3 | 0.0 | 0.00 | 0.00 | 0.00 | 45 | 1004.6 |
| 20260902205520 | 88 | 360 | 10.4 | 0.0 | 0.00 | 0.00 | 0.00 | 44 | 1004.8 |
| 20260902205021 | 87 | 360 | 11.3 | 0.0 | 0.00 | 0.00 | 0.00 | 44 | 1004.8 |
| 20260902204535 | 87 | 360 | 12.2 | 0.0 | 0.00 | 0.00 | 0.00 | 45 | 1005.1 |
| 20260902203517 | 87 | 360 | 13.0 | 0.0 | 0.00 | 0.00 | 0.00 | 45 | 1005.1 |
| 20260902203018 | 87 | 360 | 13.0 | 0.0 | 0.00 | 0.00 | 0.00 | 44 | 1005.2 |
| 20260902202517 | 87 | 360 | 13.0 | 0.0 | 0.00 | 0.00 | 0.00 | 45 | 1005.2 |
| 20260902202016 | 87 | 360 | 12.2 | 0.0 | 0.00 | 0.00 | 0.00 | 44 | 1005.2 |
| 20260902201526 | 87 | 360 | 12.2 | 0.0 | 0.00 | 0.00 | 0.00 | 45 | 1005.3 |
| 20260902201014 | 87 | 360 | 11.3 | 0.0 | 0.00 | 0.00 | 0.00 | 45 | 1005.4 |
| 20260902200515 | 87 | 360 | 12.2 | 0.0 | 0.00 | 0.00 | 0.00 | 44 | 1005.5 |
| 20260902200013 | 86 | 360 | 13.0 | 0.0 | 0.00 | 0.00 | 0.00 | 45 | 1005.6 |
| 20260902195513 | 86 | 360 | 12.2 | 0.0 | 0.00 | 0.00 | 0.00 | 45 | 1005.7 |
| 20260902195011 | 86 | 360 | 12.2 | 0.0 | 0.00 | 0.00 | 0.00 | 44 | 1005.7 |
| 20260902194511 | 86 | 360 | 11.3 | 0.0 | 0.00 | 0.00 | 0.00 | 45 | 1005.7 |
| 20260902193511 | 86 | 360 | 12.2 | 0.0 | 0.00 | 0.00 | 0.00 | 43 | 1005.6 |
| 20260902193011 | 86 | 360 | 13.0 | 0.0 | 0.00 | 0.00 | 0.00 | 44 | 1005.7 |
| 20260902192511 | 86 | 360 | 12.2 | 0.0 | 0.00 | 0.00 | 0.00 | 44 | 1005.8 |
| 20260902192010 | 86 | 360 | 11.3 | 0.0 | 0.00 | 0.00 | 0.00 | 44 | 1005.9 |
| 20260902191515 | 86 | 360 | 11.3 | 0.0 | 0.00 | 0.00 | 0.00 | 45 | 1005.9 |
| 20260902191011 | 85 | 360 | 11.3 | 0.0 | 0.00 | 0.00 | 0.00 | 46 | 1006.0 |
| 20260902190507 | 85 | 360 | 11.3 | 0.0 | 0.00 | 0.00 | 0.00 | 46 | 1006.3 |
| 20260902190005 | 85 | 360 | 12.2 | 0.0 | 0.00 | 0.00 | 0.00 | 46 | 1006.3 |
| 20260902185505 | 85 | 360 | 12.2 | 0.0 | 0.00 | 0.00 | 0.00 | 46 | 1006.4 |
| 20260902185003 | 85 | 360 | 12.2 | 0.0 | 0.00 | 0.00 | 0.00 | 47 | 1006.4 |
| 20260902184504 | 84 | 360 | 12.2 | 0.0 | 0.00 | 0.00 | 0.00 | 47 | 1006.5 |
| 20260902183503 | 85 | 360 | 12.2 | 0.0 | 0.00 | 0.00 | 0.00 | 47 | 1006.7 |
| 20260902183002 | 84 | 360 | 12.2 | 0.0 | 0.00 | 0.00 | 0.00 | 48 | 1006.7 |
| 20260902182503 | 84 | 360 | 12.2 | 0.0 | 0.00 | 0.00 | 0.00 | 48 | 1006.9 |
| 20260902182100 | 84 | 360 | 12.2 | 0.0 | 0.00 | 0.00 | 0.00 | 49 | 1006.9 |
| 20260902181613 | 83 | 360 | 12.2 | 0.0 | 0.00 | 0.00 | 0.00 | 49 | 1006.9 |
| 20260902181059 | 83 | 124 | 13.0 | 0.0 | 0.00 | 0.00 | 0.00 | 49 | 1007.1 |
| 20260902180557 | 83 | 109 | 13.0 | 0.0 | 0.00 | 0.00 | 0.00 | 50 | 1007.2 |
| 20260902180100 | 83 | 360 | 13.9 | 0.0 | 0.00 | 0.00 | 0.00 | 50 | 1007.2 |
| 20260902175556 | 82 | 360 | 13.9 | 0.0 | 0.00 | 0.00 | 0.00 | 52 | 1007.2 |
| 20260902175054 | 82 | 119 | 13.0 | 0.0 | 0.00 | 0.00 | 0.00 | 52 | 1007.3 |
| 20260902174554 | 81 | 360 | 12.2 | 0.0 | 0.00 | 0.00 | 0.00 | 53 | 1007.4 |
| 20260902174153 | 81 | 124 | 12.2 | 0.0 | 0.00 | 0.00 | 0.00 | 53 | 1007.6 |
| 20260902173552 | 81 | 360 | 12.2 | 0.0 | 0.00 | 0.00 | 0.00 | 53 | 1007.6 |
| 20260902173051 | 81 | 360 | 12.2 | 0.0 | 0.00 | 0.00 | 0.00 | 54 | 1007.7 |
| 20260902172553 | 80 | 360 | 12.2 | 0.0 | 0.00 | 0.00 | 0.00 | 54 | 1007.8 |
| 20260902172049 | 80 | 360 | 11.3 | 0.0 | 0.00 | 0.00 | 0.00 | 54 | 1007.8 |
| 20260902171556 | 80 | 150 | 10.4 | 0.0 | 0.00 | 0.00 | 0.00 | 55 | 1008.0 |
| 20260902171047 | 79 | 360 | 10.4 | 0.0 | 0.00 | 0.00 | 0.00 | 56 | 1008.0 |
| 20260902170545 | 79 | 105 | 10.4 | 0.0 | 0.00 | 0.00 | 0.00 | 55 | 1008.2 |
| 20260902170045 | 79 | 360 | 10.4 | 0.0 | 0.00 | 0.00 | 0.00 | 55 | 1008.2 |
| 20260902165545 | 79 | 360 | 10.4 | 0.0 | 0.00 | 0.00 | 0.00 | 55 | 1008.3 |
| 20260902165043 | 78 | 360 | 10.4 | 0.0 | 0.00 | 0.00 | 0.00 | 56 | 1008.3 |
| 20260902164551 | 78 | 360 | 10.4 | 0.0 | 0.00 | 0.00 | 0.00 | 56 | 1008.3 |
| 20260902164142 | 77 | 360 | 11.3 | 0.0 | 0.00 | 0.00 | 0.00 | 56 | 1008.4 |
| 20260902163542 | 77 | 360 | 11.3 | 0.0 | 0.00 | 0.00 | 0.00 | 56 | 1008.4 |
| 20260902163046 | 76 | 360 | 11.3 | 0.0 | 0.00 | 0.00 | 0.00 | 56 | 1008.5 |
| 20260902162540 | 76 | 360 | 10.4 | 0.0 | 0.00 | 0.00 | 0.00 | 56 | 1008.5 |
| 20260902162039 | 76 | 360 | 10.4 | 0.0 | 0.00 | 0.00 | 0.00 | 55 | 1008.5 |
| 20260902161538 | 75 | 360 | 10.4 | 0.0 | 0.00 | 0.00 | 0.00 | 55 | 1008.6 |
| 20260902161040 | 75 | 360 | 9.6 | 0.0 | 0.00 | 0.00 | 0.00 | 55 | 1008.6 |
| 20260902160538 | 75 | 360 | 9.6 | 0.0 | 0.00 | 0.00 | 0.00 | 56 | 1008.5 |
| 20260902160036 | 75 | 360 | 10.4 | 0.0 | 0.00 | 0.00 | 0.00 | 57 | 1008.7 |
| 20260902155534 | 74 | 360 | 10.4 | 0.0 | 0.00 | 0.00 | 0.00 | 57 | 1008.7 |
| 20260902155033 | 74 | 360 | 10.4 | 0.0 | 0.00 | 0.00 | 0.00 | 58 | 1008.8 |
| 20260902154538 | 74 | 360 | 9.6 | 0.0 | 0.00 | 0.00 | 0.00 | 58 | 1008.8 |
| 20260902154132 | 73 | 174 | 9.6 | 0.0 | 0.00 | 0.00 | 0.00 | 59 | 1008.8 |
| 20260902153532 | 73 | 360 | 9.6 | 0.0 | 0.00 | 0.00 | 0.00 | 59 | 1008.9 |
| 20260902153037 | 73 | 360 | 9.6 | 0.0 | 0.00 | 0.00 | 0.00 | 59 | 1008.9 |
| 20260902152529 | 72 | 360 | 9.6 | 0.0 | 0.00 | 0.00 | 0.00 | 60 | 1008.8 |
| 20260902152028 | 72 | 161 | 9.6 | 0.0 | 0.00 | 0.00 | 0.00 | 60 | 1009.0 |
| 20260902151527 | 71 | 150 | 10.4 | 0.0 | 0.00 | 0.00 | 0.00 | 60 | 1009.0 |
| 20260902151025 | 71 | 360 | 10.4 | 0.0 | 0.00 | 0.00 | 0.00 | 61 | 1009.2 |
| 20260902150528 | 70 | 360 | 9.6 | 0.0 | 0.00 | 0.00 | 0.00 | 61 | 1009.1 |
| 20260902150026 | 70 | 360 | 8.7 | 0.0 | 0.00 | 0.00 | 0.00 | 61 | 1009.3 |
| 20260902145522 | 69 | 360 | 8.7 | 0.0 | 0.00 | 0.00 | 0.00 | 63 | 1009.2 |
| 20260902145021 | 68 | 360 | 9.6 | 0.0 | 0.00 | 0.00 | 0.00 | 64 | 1009.3 |
| 20260902144519 | 68 | 360 | 9.6 | 0.0 | 0.00 | 0.00 | 0.00 | 64 | 1009.3 |
| 20260902144119 | 66 | 360 | 9.6 | 0.0 | 0.00 | 0.00 | 0.00 | 64 | 1009.3 |
| 20260902143518 | 66 | 360 | 9.6 | 0.0 | 0.00 | 0.00 | 0.00 | 65 | 1009.3 |
| 20260902143020 | 66 | 360 | 8.7 | 0.0 | 0.00 | 0.00 | 0.00 | 65 | 1009.4 |
| 20260902142516 | 65 | 360 | 7.0 | 0.0 | 0.00 | 0.00 | 0.00 | 67 | 1009.5 |